FENGYUN 1C DEB

Satellite information

Favourite Embed

Satellite Type and Status

DEBRISIN ORBIT

Key statistics

Satellite FENGYUN 1C DEB at a glance.

Uptime

9555

Days in orbit

Revolutions

≈ 14.6

Per day

Orbit

SSO

Sun Synchronous Orbit

Inclination

99.2

Latest

Satellite identification and parameters

Extended collection of information and parameters for FENGYUN 1C DEB.

Object identification

Identified? True

Debris? True

Object name: FENGYUN 1C DEB

International designator: 1999-025DMZ

Object number (NORAD): 35169

Object ID (CCSDS): 35169

Country: PEOPLES REPUBLIC OF CHINA (PRC)

Current information (Y/N): Y

RCS size: SMALL

Orbital parameters

Period: 98.804 minutes

Inclination: 99.1516 deg

SMA: 7079.633 km

Apoapsis: 810.178 km

Periapsis: 592.817 km

RAAN: 50.8951 deg

Eccentricy: 0.0153511

Argument of periapsis: 242.0073 deg

Mean anomaly: 116.5518 deg

Mean motion: 14.57426581 rev/day

Mean motion (dot): 0.00001287 rev/day2

B* drag term: 0.00025387 1/REarth

Two-line elements (TLE)

Creation date: July 2, 2025, 5:47 p.m.

Reference frame: TEME

Reference center: EARTH

Epoch: July 2, 2025, 9:50 a.m. UTC

TLE line 0: 0 FENGYUN 1C DEB

TLE line 1: 1 35169U 99025DMZ 25183.41040195 .00001287 00000-0 25387-3 0 9998

TLE line 2: 2 35169 99.1516 50.8951 0153511 242.0073 116.5518 14.57426581634002

Live tracking on map

Real-time ground track for satellite FENGYUN 1C DEB.

In-orbit conjunctions

A list of the most updated potential collisions computed for object FENGYUN 1C DEB.

Target Orbit TCA Probability of collision Miss distance Type
CZ-6A DEB LEO 2025-02-27 18:56:06 0.0001464647 341.0 (m) DEBRIS
ELECTRON KICK STAGE R/B SSO 2025-01-30 06:09:05 0.0002003847 355.0 (m) ROCKET BODY
CZ-6A DEB LEO 2024-10-19 15:03:11 0.0001464748 207.0 (m) DEBRIS
FENGYUN 1C DEB SSO 2024-09-28 19:41:30 0.0001544975 713.0 (m) DEBRIS

Associated space launch

Chinese polar orbiting meteorological satellite

FENGYUN 1C DEB was lifted into orbit during the mission ‘Long March 4B | Feng Yun 1C’, on board a Long March 4B space rocket.

The launch took place on May 10, 1999, 1:33 a.m. from Launch Complex 7.

For more information about the launch, click the button.

Launch to space Long March 4B | Feng Yun 1C
Long March 4B | Feng Yun 1C

Agency: N/A

Status: Launch Successful

Launch date: May 10, 1999, 1:33 a.m. UTC

Rocket: Long March 4B

Launch pad: Launch Complex 7

Location: Taiyuan Satellite Launch Center, People's Republic of China

...

Latest news about this satellite

There are no fresh news available about this satellite. Check back as we update our databases every day.


Newsletter sign-up

Weekly statistics, charts and insights to help you stay on top of the space industry.